Weather History for KBXK - July, 2013

Change the Weather History Date:

Wednesday, July 17, 2013

  Actual Average (KGYR) Record (KGYR)
Temperature  
Mean Temperature 92 °F -  
Max Temperature 102 °F 104 °F 118 °F (2005)
Min Temperature 82 °F 79 °F 75 °F (2001)
Cooling Degree Days 27    
Growing Degree Days 42 (Base 50)    
Moisture  
Dew Point 62 °F    
Average Humidity 40    
Maximum Humidity 62    
Minimum Humidity 22    
Precipitation  
Precipitation 0.00 in - - ()
Sea Level Pressure  
Sea Level Pressure 29.92 in    
Wind  
Wind Speed 10 mph (East)    
Max Wind Speed 24 mph    
Max Gust Speed 38 mph    
Visibility 10 miles    
Events      
Averages and records for this station are not official NWS values.
T = Trace of Precipitation, MM = Missing Value Source: NWS Daily Summary

Daily Weather History Graph

Daily Weather History Graph

Search for Another Location

Airport or City:

Trip Planner

Search our weather history database for the weather conditions in past years. The results will help you decide how hot, cold, wet, or windy it might be!

Date:

Astronomy

Jul. 17, 2013 Rise Set
Actual Time 5:33 AM MST 7:40 PM MST
Civil Twilight 5:05 AM MST 8:08 PM MST
Nautical Twilight 4:31 AM MST 8:42 PM MST
Astronomical Twilight 3:54 AM MST 9:19 PM MST
Moon 2:37 PM MST (7/17) 12:37 AM MST (7/17)
Length of Visible Light 15h 02m
Length of Day
14h 06m
Waxing Gibbous, 68% of the Moon is Illuminated
Jul 17
Waxing Gibbous
Jul 22
Full
Jul 29
Last Quarter
Aug 6
New
Aug 14
First Quarter

Hourly Weather History & Observations

Time (MST) Temp. Heat Index Dew Point Humidity Pressure Visibility Wind Dir Wind Speed Gust Speed Precip Events Conditions
12:15 AM 86.0 °F 87.3 °F 64.4 °F 48% 29.93 in 10.0 mi East 16.1 mph - N/A   Clear
12:35 AM 84.2 °F 86.6 °F 66.2 °F 55% 29.93 in 10.0 mi East 16.1 mph - N/A   Clear
12:55 AM 84.2 °F 86.6 °F 66.2 °F 55% 29.93 in 10.0 mi East 13.8 mph 20.7 mph N/A   Partly Cloudy
1:15 AM 84.2 °F 86.6 °F 66.2 °F 55% 29.92 in 10.0 mi East 17.3 mph 20.7 mph N/A   Mostly Cloudy
1:35 AM 84.2 °F 86.6 °F 66.2 °F 55% 29.92 in 10.0 mi East 15.0 mph 19.6 mph N/A   Overcast
1:55 AM 84.2 °F 86.6 °F 66.2 °F 55% 29.92 in 10.0 mi East 13.8 mph 18.4 mph N/A   Overcast
2:15 AM 86.0 °F 88.2 °F 66.2 °F 51% 29.92 in 10.0 mi East 11.5 mph 18.4 mph N/A   Overcast
2:35 AM 84.2 °F 86.6 °F 66.2 °F 55% 29.92 in 10.0 mi East 10.4 mph - N/A   Overcast
2:55 AM 84.2 °F 86.6 °F 66.2 °F 55% 29.92 in 10.0 mi East 8.1 mph - N/A   Overcast
3:15 AM 84.2 °F 86.6 °F 66.2 °F 55% 29.93 in 10.0 mi East 6.9 mph - N/A   Mostly Cloudy
3:35 AM 84.2 °F 86.6 °F 66.2 °F 55% 29.92 in 10.0 mi East 4.6 mph - N/A   Mostly Cloudy
3:55 AM 84.2 °F 86.6 °F 66.2 °F 55% 29.93 in 10.0 mi ESE 4.6 mph - N/A   Mostly Cloudy
4:15 AM 84.2 °F 86.6 °F 66.2 °F 55% 29.93 in 10.0 mi East 6.9 mph - N/A   Overcast
4:35 AM 82.4 °F 84.6 °F 66.2 °F 58% 29.93 in 10.0 mi East 5.8 mph - N/A   Overcast
4:55 AM 82.4 °F 84.6 °F 66.2 °F 58% 29.94 in 10.0 mi ESE 6.9 mph - N/A   Overcast
5:15 AM 82.4 °F 84.6 °F 66.2 °F 58% 29.94 in 10.0 mi ESE 5.8 mph - N/A   Overcast
5:35 AM 82.4 °F 85.4 °F 68.0 °F 62% 29.95 in 10.0 mi ESE 5.8 mph - N/A   Overcast
5:55 AM 82.4 °F 85.4 °F 68.0 °F 62% 29.96 in 10.0 mi NE 3.5 mph - N/A   Mostly Cloudy
6:15 AM 82.4 °F 85.4 °F 68.0 °F 62% 29.97 in 10.0 mi East 3.5 mph - N/A   Partly Cloudy
6:35 AM 82.4 °F 85.4 °F 68.0 °F 62% 29.97 in 10.0 mi East 5.8 mph - N/A   Partly Cloudy
6:55 AM 84.2 °F 86.6 °F 66.2 °F 55% 29.98 in 10.0 mi East 9.2 mph - N/A   Clear
7:15 AM 86.0 °F 87.3 °F 64.4 °F 48% 29.98 in 10.0 mi East 11.5 mph - N/A   Clear
7:35 AM 86.0 °F 87.3 °F 64.4 °F 48% 29.99 in 10.0 mi ENE 13.8 mph - N/A   Partly Cloudy
7:55 AM 86.0 °F 87.3 °F 64.4 °F 48% 29.99 in 10.0 mi East 12.7 mph - N/A   Partly Cloudy
8:15 AM 86.0 °F 87.3 °F 64.4 °F 48% 29.99 in 10.0 mi ESE 8.1 mph - N/A   Clear
8:35 AM 86.0 °F 88.2 °F 66.2 °F 51% 29.99 in 10.0 mi East 6.9 mph - N/A   Clear
8:55 AM 87.8 °F 90.4 °F 66.2 °F 49% 29.99 in 10.0 mi East 6.9 mph - N/A   Clear
9:15 AM 89.6 °F 91.1 °F 64.4 °F 43% 29.99 in 10.0 mi East 8.1 mph - N/A   Clear
9:35 AM 91.4 °F 92.1 °F 62.6 °F 38% 29.99 in 10.0 mi ESE 10.4 mph - N/A   Clear
9:55 AM 91.4 °F 92.1 °F 62.6 °F 38% 29.99 in 10.0 mi ESE 11.5 mph - N/A   Clear
10:15 AM 93.2 °F 94.1 °F 62.6 °F 36% 29.99 in 10.0 mi ESE 11.5 mph - N/A   Clear
10:35 AM 95.0 °F 95.2 °F 60.8 °F 32% 29.98 in 10.0 mi East 12.7 mph 17.3 mph N/A   Clear
10:55 AM 93.2 °F 94.1 °F 62.6 °F 36% 29.98 in 10.0 mi ESE 9.2 mph - N/A   Clear
11:15 AM 95.0 °F 96.0 °F 62.6 °F 34% 29.97 in 10.0 mi SSE 6.9 mph - N/A   Clear
11:35 AM 96.8 °F 96.2 °F 59.0 °F 28% 29.97 in 10.0 mi ESE 11.5 mph - N/A   Clear
11:55 AM 95.0 °F 94.4 °F 59.0 °F 30% 29.96 in 10.0 mi ESE 6.9 mph - N/A   Clear
12:15 PM 98.6 °F 98.5 °F 59.0 °F 27% 29.96 in 10.0 mi ESE 9.2 mph - N/A   Clear
12:35 PM 98.6 °F 98.5 °F 59.0 °F 27% 29.94 in 10.0 mi ESE 12.7 mph - N/A   Clear
12:55 PM 98.6 °F 97.6 °F 57.2 °F 25% 29.94 in 10.0 mi SE 11.5 mph 16.1 mph N/A   Clear
1:15 PM 100.4 °F 99.7 °F 57.2 °F 24% 29.93 in 10.0 mi SE 10.4 mph - N/A   Clear
1:35 PM 100.4 °F 98.8 °F 55.4 °F 22% 29.92 in 10.0 mi SSE 10.4 mph - N/A   Clear
1:55 PM 100.4 °F 99.7 °F 57.2 °F 24% 29.91 in 10.0 mi SE 9.2 mph - N/A   Clear
2:15 PM 100.4 °F 99.7 °F 57.2 °F 24% 29.90 in 10.0 mi SW 5.8 mph - N/A   Clear
2:35 PM 100.4 °F 99.7 °F 57.2 °F 24% 29.90 in 10.0 mi SSE 4.6 mph - N/A   Clear
2:55 PM 102.2 °F 101.4 °F 57.2 °F 22% 29.89 in 10.0 mi South 10.4 mph - N/A   Clear
3:15 PM 100.4 °F 99.7 °F 57.2 °F 24% 29.88 in 10.0 mi SW 6.9 mph - N/A   Clear
3:35 PM 102.2 °F 101.4 °F 57.2 °F 22% 29.87 in 10.0 mi West 8.1 mph - N/A   Clear
3:55 PM 102.2 °F 101.4 °F 57.2 °F 22% 29.86 in 10.0 mi WSW 4.6 mph - N/A   Clear
4:15 PM 102.2 °F 101.4 °F 57.2 °F 22% 29.87 in 10.0 mi SE 3.5 mph - N/A   Clear
4:35 PM 102.2 °F 101.4 °F 57.2 °F 22% 29.86 in 10.0 mi Calm Calm - N/A   Clear
4:55 PM 102.2 °F 101.4 °F 57.2 °F 22% 29.85 in 10.0 mi South 6.9 mph - N/A   Clear
5:15 PM 102.2 °F 101.4 °F 57.2 °F 22% 29.85 in 10.0 mi East 8.1 mph - N/A   Partly Cloudy
5:35 PM 96.8 °F 97.1 °F 60.8 °F 30% 29.85 in 3.0 mi North 24.2 mph 38.0 mph N/A   Partly Cloudy
5:55 PM 93.2 °F 93.3 °F 60.8 °F 34% 29.86 in 9.0 mi NNE 19.6 mph 29.9 mph N/A   Clear
6:15 PM 95.0 °F 94.4 °F 59.0 °F 30% 29.85 in 10.0 mi North 19.6 mph 24.2 mph N/A   Scattered Clouds
6:35 PM 95.0 °F 93.7 °F 57.2 °F 28% 29.85 in 10.0 mi North 18.4 mph 21.9 mph N/A   Mostly Cloudy
6:55 PM 95.0 °F 94.4 °F 59.0 °F 30% 29.85 in 10.0 mi North 16.1 mph 23.0 mph N/A   Partly Cloudy
7:15 PM 95.0 °F 93.0 °F 55.4 °F 26% 29.85 in 10.0 mi North 15.0 mph 19.6 mph N/A   Scattered Clouds
7:35 PM 95.0 °F 92.7 °F 53.6 °F 25% 29.85 in 10.0 mi North 10.4 mph 16.1 mph N/A   Partly Cloudy
7:55 PM 95.0 °F 92.7 °F 53.6 °F 25% 29.85 in 10.0 mi North 9.2 mph - N/A   Clear
8:15 PM 95.0 °F - 51.8 °F 23% 29.86 in 10.0 mi North 5.8 mph - N/A   Mostly Cloudy
8:35 PM 91.4 °F 92.1 °F 62.6 °F 38% 29.87 in 10.0 mi SE 6.9 mph - N/A   Mostly Cloudy
8:55 PM 91.4 °F 90.7 °F 59.0 °F 34% 29.87 in 10.0 mi Calm Calm - N/A   Scattered Clouds
9:15 PM 91.4 °F 90.7 °F 59.0 °F 34% 29.87 in 10.0 mi East 5.8 mph - N/A   Mostly Cloudy
9:35 PM 87.8 °F 87.6 °F 60.8 °F 40% 29.88 in 10.0 mi Calm Calm - N/A   Mostly Cloudy
9:55 PM 89.6 °F 88.9 °F 59.0 °F 36% 29.88 in 10.0 mi NW 6.9 mph - N/A   Mostly Cloudy
10:15 PM 89.6 °F 89.5 °F 60.8 °F 38% 29.89 in 10.0 mi Calm Calm - N/A   Partly Cloudy
10:35 PM 87.8 °F 88.5 °F 62.6 °F 43% 29.88 in 10.0 mi North 3.5 mph - N/A   Partly Cloudy
10:55 PM 87.8 °F 88.5 °F 62.6 °F 43% 29.89 in 10.0 mi Calm Calm - N/A   Partly Cloudy
11:15 PM 84.2 °F 85.6 °F 64.4 °F 51% 29.89 in 10.0 mi Calm Calm - N/A   Partly Cloudy
11:35 PM 84.2 °F 85.6 °F 64.4 °F 51% 29.89 in 10.0 mi Calm Calm - N/A   Clear
11:55 PM 84.2 °F 85.6 °F 64.4 °F 51% 29.90 in 10.0 mi Calm Calm - N/A   Clear